[Iaude] MPEC X46: 2023 XK [a=0.79,e=0.31,i=14.1,H=25.2]

mpec at marsden.cfa.harvard.edu mpec at marsden.cfa.harvard.edu
Mon Dec 4 17:57:11 EST 2023


M.P.E.C. 2023-X46                              Issued 2023 December 4, 22:55 UT

     The Minor Planet Electronic Circulars contain information on unusual
         minor planets, routine data on comets and natural satellites,
         and occasional editorial announcements.  They are published
    on behalf of Division F of the International Astronomical Union by the
          Minor Planet Center, Smithsonian Astrophysical Observatory,
                          Cambridge, MA 02138, U.S.A.
			  
             Prepared using the Tamkin Foundation Computer Network

                              MPC at CFA.HARVARD.EDU
            URL https://www.minorplanetcenter.net/    ISSN 1523-6714

                                    2023 XK                                     


Observations:
     K23X00K*1C2023 12 03.34762704 44 55.320+34 42 07.78         18.92GVEX046G96
     K23X00K 1C2023 12 03.35278504 44 48.725+34 40 41.63         18.91GVEX046G96
     K23X00K 1C2023 12 03.35793804 44 42.130+34 39 15.01         18.84GVEX046G96
     K23X00K 1C2023 12 03.36310404 44 35.624+34 37 48.94         18.93GVEX046G96
     K23X00K KC2023 12 03.40889204 43 37.780+34 24 56.10         18.82GVEX046I52
     K23X00K KC2023 12 03.40940104 43 37.150+34 24 47.50         18.57GVEX046I52
     K23X00K KC2023 12 03.40992104 43 36.480+34 24 38.60         19.06GVEX046I52
     K23X00K  C2023 12 03.45543204 42 48.346+34 12 57.60         18.91oVEX046T05
     K23X00K  C2023 12 03.45859604 42 44.261+34 12 04.68         18.98oVEX046T05
     K23X00K  C2023 12 03.46412604 42 37.123+34 10 29.17         19.02oVEX046T05
     K23X00K  C2023 12 03.48778604 42 07.075+34 03 49.21         19.01oVEX046T05
     K23X00K 1C2023 12 03.75844 04 37 00.85 +32 45 13.1          19.4 GVEX046C40
     K23X00K 1C2023 12 03.76253 04 36 55.85 +32 44 03.2          19.2 GVEX046C40
     K23X00K 1C2023 12 03.76663 04 36 50.86 +32 42 52.5          19.2 GVEX046C40
     K23X00K 1C2023 12 03.77455 04 36 41.04 +32 40 38.5          19.3 GVEX046C40
     K23X00K 1C2023 12 03.77866 04 36 36.05 +32 39 28.7          19.2 GVEX046C40
     K23X00K 1C2023 12 03.78275 04 36 31.09 +32 38 20.0          19.2 GVEX046C40
     K23X00K KB2023 12 03.78997904 36 25.006+32 35 35.56         18.0 GXEX046K74
     K23X00K KB2023 12 03.79195 04 36 22.92 +32 35 16.6          18.6 RZEX046106
     K23X00K KB2023 12 03.79479 04 36 19.46 +32 34 28.4          18.4 RZEX046106
     K23X00K KB2023 12 03.79486904 36 19.114+32 34 12.76         18.2 GXEX046K74
     K23X00K KB2023 12 03.79764 04 36 16.03 +32 33 39.9          18.4 RZEX046106
     K23X00K KB2023 12 03.79968404 36 13.306+32 32 50.82         18.2 GXEX046K74
     K23X00K KB2023 12 03.80064 04 36 12.40 +32 32 49.2          18.7 RZEX046106
     K23X00K KC2023 12 04.16576904 29 04.05 +30 45 41.1          18.9 GVEX046H21
     K23X00K KC2023 12 04.16731204 29 02.16 +30 45 13.7          19.2 GVEX046H21
     K23X00K KC2023 12 04.16924104 28 59.78 +30 44 39.6          19.5 GVEX046H21
     K23X00K KC2023 12 04.17104204 28 57.58 +30 44 07.3          19.1 GVEX046H21
     K23X00K KC2023 12 04.23037804 27 48.82 +30 26 29.1          18.7 GXEX046858
     K23X00K KC2023 12 04.23745504 27 40.14 +30 24 21.7          18.8 GXEX046858
     K23X00K KC2023 12 04.24421504 27 31.85 +30 22 19.6          18.7 GXEX046858
     K23X00K 1C2023 12 04.29661804 26 28.540+30 06 36.07         19.48GVEX046703
     K23X00K 1C2023 12 04.29865604 26 26.063+30 05 58.09         18.83GVEX046703
     K23X00K 1C2023 12 04.30069104 26 23.600+30 05 21.34         19.30GVEX046703
     K23X00K 1C2023 12 04.30273204 26 21.008+30 04 43.00         18.84GVEX046703
     K23X00K  C2023 12 04.58879504 20 44.016+28 36 20.93         18.35GVEX046F52
     K23X00K KC2023 12 04.72591604 18 31.70 +27 51 58.8          18.8 GXEX046L18
     K23X00K KC2023 12 04.73294004 18 23.64 +27 49 47.3          18.3 GXEX046L18
     K23X00K KC2023 12 04.73942604 18 16.10 +27 47 47.6          18.7 GXEX046L18
     K23X00K KC2023 12 04.83761 04 16 24.02 +27 17 31.4          19.7 VZEX046M63
     K23X00K KC2023 12 04.83962 04 16 21.66 +27 16 53.1          19.4 VZEX046M63
     K23X00K KC2023 12 04.84148 04 16 19.42 +27 16 18.0          19.2 VZEX046M63
     K23X00K KC2023 12 04.84321 04 16 17.41 +27 15 45.2          19.4 VZEX046M63

Observer details:
106 Crni Vrh.  Observer H. Mikuz.  0.60-m f/3.3 reflector + CMO.
703 Catalina Sky Survey.  Observer G. J. Leonard.  Measurers E. C. Beshore, D.
    Fay, J. B. Fazekas, D. C. Fuls, A. R. Gibbs, A. D. Grauer, H. Groeller, J.
    K. Hogan, R. A. Kowalski, S. M. Larson, G. J. Leonard, D. Rankin, R. L.
    Seaman, F. C. Shelly, K. W. Wierzchos.  0.68-m Schmidt + 10K CCD.
858 Tebbutt Observatory, Edgewood.  Observer F. B. Zoltowski.  0.51-m f/8.1
    Schmidt-Cassegrain + CCD.
C40 Kuban State University Astrophysical Observatory.  Observers A. Ivanov, A.
    Barcov, V. Ivanov, V. Lysenko, N. Yakovenko, N. Ivanova, N. Gorbunov, G.
    Kurbatov, P. Shchukin, V. Roshchupko.  Measurer A. Ivanov.  0.51-m f/8
    reflector + CCD.
F52 Pan-STARRS 2, Haleakala.  Observers J. Herman, T. Lowe, P. Minguez, A.
    Schultz, I. Smith.  Measurers K. Chambers, T. de Boer, J. Fairlamb, H.
    Gao, M. Huber, C.-C. Lin, E. Magnier, Y. Ramanjooloo, R. Wainscoat, R.
    Weryk.  1.8-m Ritchey-Chretien + CCD.
G96 Mt. Lemmon Survey.  Observer H. Groeller.  Measurers E. C. Beshore, D.
    Fay, J. B. Fazekas, D. C. Fuls, A. R. Gibbs, A. D. Grauer, H. Groeller, J.
    K. Hogan, R. A. Kowalski, S. M. Larson, G. J. Leonard, D. Rankin, R. L.
    Seaman, F. C. Shelly, K. W. Wierzchos.  1.5-m reflector + 10K CCD.
H21 Astronomical Research Observatory, Westfield.  Observer R. Holmes.
    Measurers T. Linder, R. Holmes, L. Horn.  0.76-m f/3.0 astrograph + CCD.
I52 Steward Observatory, Mt. Lemmon Station.  Observer R. A. Kowalski.
    Measurers E. C. Beshore, D. Fay, J. B. Fazekas, D. C. Fuls, A. R. Gibbs,
    A. D. Grauer, H. Groeller, J. K. Hogan, R. A. Kowalski, S. M. Larson, G.
    J. Leonard, D. Rankin, R. L. Seaman, F. C. Shelly, K. W. Wierzchos.  1.0-m
    prime focus + CCD.
K74 Muensterschwarzach Observatory, Schwarzach.  Observer C. Gerhard.  0.30-m
    f/3.75 reflector + CMO.
L18 QOS Observatory, Zalistsi.  Observers S. V. Rischenko, O. V. Kravchenko.
    Measurer A. M. Kozhukhov.  0.50-m f/3.8 reflector + CCD.
M63 RPF Observatory, Gagliano del Capo.  Observer D. Licchelli.  0.30-m f/5.3
    reflector + CCD.
T05 ATLAS-HKO, Haleakala.  Observers L. Denneau, R. Siverd, J. Tonry, H.
    Weiland.  Measurers L. Denneau, N. Erasmus, A. Fitzsimmons, A. Lawrence,
    J. Robinson, R. Siverd, J. Tonry, H. Weiland.  0.5-m Reflector + CCD.

Orbital elements:
2023 XK                                                  Earth MOID = 0.0385 AU
Epoch 2023 Sept. 13.0 TT = JDT 2460200.5                Bell                    
M  81.30779              (2000.0)            P               Q                  
n   1.39809995     Peri.  349.39618     -0.46032011     +0.85650685             
a   0.7920949      Node   252.85160     -0.79556890     -0.51469045             
e   0.3066050      Incl.   14.14145     -0.39392325     +0.03859733             
P   0.70           H   25.21          G   0.15           U   7                  
Residuals in seconds of arc
231203 G96  0.1+  0.1+    231203 C40  0.4-  0.7-    231204 858  0.3-  0.0
231203 G96  0.3-  0.0     231203 C40  0.4+  0.5+    231204 703  0.2-  0.4+
231203 G96 (0.8-  0.5-)   231203 K74  0.1+  0.1-    231204 703  0.1+  0.2-
231203 G96  0.1-  0.1-    231203 106  0.4-  0.1+    231204 703  0.6+  0.2+
231203 I52  0.0   0.0     231203 106  0.7-  0.1+    231204 703  0.5-  0.7-
231203 I52  0.2+  0.1+    231203 K74  0.1-  0.2+    231204 F52  0.0   0.1+
231203 I52  0.1-  0.0     231203 106  0.5-  0.1+    231204 L18  0.4-  0.7+
231203 T05  0.5+  0.9+    231203 K74  0.2-  0.2+    231204 L18  0.2-  0.4-
231203 T05  0.0   1.3+    231203 106  0.4-  0.4+    231204 L18  1.1-  0.5+
231203 T05  0.8-  1.0-    231204 H21  0.2+  0.3-    231204 M63  0.5-  0.4+
231203 T05  0.9+  0.3+    231204 H21  0.2+  0.1-    231204 M63  0.4-  0.1-
231203 C40  0.2-  0.4-    231204 H21  0.1-  0.2+    231204 M63  1.0-  0.1-
231203 C40  0.1-  0.8-    231204 H21  0.0   0.1+    231204 M63  0.7-  0.3-
231203 C40 (0.3+  1.8-)   231204 858  0.4-  0.0
231203 C40  1.1-  0.9-    231204 858  0.4-  0.1+

Ephemeris:
2023 XK                  a,e,i = 0.79, 0.31, 14                  q = 0.5492
Date    TT    R. A. (2000) Decl.     Delta      r    Elong.  Phase     V
2023 11 04    09 31 09.0 +56 32 36   0.1680  1.0203    95.0    75.6    24.0
...
2023 11 19    08 28 45.8 +56 31 47   0.09923 1.0344   115.1    60.0    22.4
...
2023 11 27    06 49 39.4 +52 22 11   0.06442 1.0341   135.9    41.6    21.0
...
2023 12 03    04 51 56.0 +36 15 47   0.04592 1.0303   165.2    14.1    19.4
2023 12 04    04 32 12.0 +31 35 57   0.04428 1.0294   170.4     9.2    19.1
2023 12 05    04 13 19.0 +26 26 49   0.04322 1.0284   172.0     7.6    19.0
...
2023 12 11    02 45 15.1 -04 56 38   0.04957 1.0205   135.1    42.9    20.4
...
2023 12 19    01 44 38.8 -26 21 11   0.07849 1.0053   103.6    72.1    22.2
...
2024 01 03    00 59 00.5 -38 27 41   0.1431  0.9624    77.5    94.2    24.3

M. P. C. Staff               (C) Copyright 2023 MPC           M.P.E.C. 2023-X46





More information about the Iaude mailing list